FW4154 Weather Reports


time (UTC)temp
F
wind
direction
speed
knots
gust
knots
rain 1hr
in
rain 24hr
in
rain mn
in
humidity
%
barometer
mb
20260503224853 78 260 5.2 10.4 0.00 0.00 0.00 49 1000.2
20260503223907 77 293 4.3 8.7 0.00 0.00 0.00 50 1000.2
20260503222902 76 323 5.2 11.3 0.00 0.00 0.00 50 1000.2
20260503221903 77 300 7.0 12.2 0.00 0.00 0.00 50 1000.2
20260503220904 77 269 6.1 10.4 0.00 0.00 0.00 49 1000.2
20260503215908 77 269 5.2 11.3 0.00 0.00 0.00 48 1000.2
20260503215351 77 328 7.0 13.0 0.00 0.00 0.00 49 1000.2
20260503214356 77 300 7.0 12.2 0.00 0.00 0.00 49 1000.2
20260503213406 77 325 4.3 10.4 0.00 0.00 0.00 47 1000.2
20260503212901 78 286 6.1 9.6 0.00 0.00 0.00 48 1000.2
20260503211853 77 282 6.1 11.3 0.00 0.00 0.00 49 1000.2
20260503210908 76 293 7.0 11.3 0.00 0.00 0.00 49 1000.2
20260503205854 77 284 7.0 10.4 0.00 0.00 0.00 50 1000.2
20260503204859 76 301 7.0 11.3 0.00 0.00 0.00 50 1000.2
20260503203906 76 283 3.5 8.7 0.00 0.00 0.00 51 1000.2
20260503203355 76 271 3.5 8.7 0.00 0.00 0.00 52 1000.2
20260503202356 76 331 3.5 9.6 0.00 0.00 0.00 50 1000.2
20260503201353 75 268 4.3 8.7 0.00 0.00 0.00 52 1000.2
20260503200404 75 282 5.2 8.7 0.00 0.00 0.00 52 1000.2
20260503195848 74 328 3.5 9.6 0.00 0.00 0.00 55 1000.2
20260503194905 74 257 1.7 8.7 0.00 0.00 0.00 54 1000.2
20260503193856 74 245 3.5 7.8 0.00 0.00 0.00 55 1000.2
20260503192907 73 234 2.6 8.7 0.00 0.00 0.00 56 1000.2
20260503192404 73 312 3.5 8.7 0.00 0.00 0.00 57 1000.2
20260503191357 72 298 2.6 8.7 0.00 0.00 0.00 56 1000.2
20260503190400 72 265 5.2 9.6 0.00 0.00 0.00 58 1000.2
20260503185849 71 262 4.3 7.8 0.00 0.00 0.00 60 1000.2
20260503184908 72 313 0.9 7.0 0.00 0.00 0.00 56 1000.2
20260503183856 72 309 1.7 7.8 0.00 0.00 0.00 54 1000.2
20260503182904 72 42 5.2 8.7 0.00 0.00 0.00 52 1000.2
20260503181856 72 348 4.3 7.0 0.00 0.00 0.00 53 1000.2
20260503180859 71 256 0.9 4.3 0.00 0.00 0.00 58 1000.2
20260503175909 71 343 3.5 7.8 0.00 0.00 0.00 56 1000.2
20260503175402 71 331 2.6 7.8 0.00 0.00 0.00 57 1000.2
20260503174407 71 319 4.3 9.6 0.00 0.00 0.00 54 1000.2
20260503173407 71 295 1.7 8.7 0.00 0.00 0.00 56 1000.2
20260503172901 71 279 4.3 8.7 0.00 0.00 0.00 54 1000.2
20260503172158 67 43 1.7 7.0 0.00 0.00 0.00 65 1000.2
20260503150351 58 44 0.9 2.6 0.00 0.00 0.00 80 1000.2
20260503130900 51 9 1.7 2.6 0.00 0.00 0.00 89 1000.2
20260503110444 53 9 0.9 2.6 0.00 0.00 0.00 86 1000.2
20260503080929 55 9 0.0 1.7 0.00 0.00 0.00 83 1000.2
20260503080427 55 9 0.0 3.5 0.00 0.00 0.00 82 1000.2
20260503072924 55 17 0.0 0.0 0.00 0.00 0.00 83 1000.2
20260503072421 55 17 0.0 0.0 0.00 0.00 0.00 82 1000.2
20260503071912 55 17 0.0 0.0 0.00 0.00 0.00 82 1000.2
20260503070928 55 17 0.0 0.0 0.00 0.00 0.00 81 1000.2
20260503053933 58 279 0.0 0.0 0.00 0.00 0.00 77 1000.2
20260503053424 59 279 0.0 0.0 0.00 0.00 0.00 76 1000.2
20260503052446 59 280 0.0 0.0 0.00 0.00 0.00 75 1000.2
20260503051940 59 279 0.0 0.0 0.00 0.00 0.00 75 1000.2
20260503050933 59 273 0.0 0.0 0.00 0.00 0.00 74 1000.2
20260503050430 59 273 0.0 0.0 0.00 0.00 0.00 75 1000.2
20260503045433 60 273 0.0 0.0 0.00 0.00 0.00 73 1000.2
20260503044436 61 273 0.0 0.0 0.00 0.00 0.00 72 1000.2
20260503043432 61 273 0.0 0.0 0.00 0.00 0.00 73 1000.2
20260503042930 61 273 0.0 0.0 0.00 0.00 0.00 73 1000.2
20260503041939 62 273 0.0 0.9 0.00 0.00 0.00 72 1000.2
20260503040933 62 256 0.0 0.9 0.00 0.00 0.00 73 1000.2
20260503040428 62 280 0.0 0.9 0.00 0.00 0.00 72 1000.2
20260503035437 64 278 0.0 1.7 0.00 0.00 0.00 68 1000.2
20260503034439 65 282 0.0 2.6 0.00 0.00 0.00 65 1000.2
20260503033433 65 286 0.0 1.7 0.00 0.00 0.00 66 1000.2
20260503032929 66 283 0.0 1.7 0.00 0.00 0.00 61 1000.2
20260503031934 66 285 0.9 2.6 0.00 0.00 0.00 62 1000.2
20260503031429 67 285 1.7 2.6 0.00 0.00 0.00 60 1000.2
20260503030442 68 286 1.7 3.5 0.00 0.00 0.00 59 1000.2
20260503025937 67 281 1.7 3.5 0.00 0.00 0.00 60 1000.2
20260503024934 70 341 0.9 2.6 0.00 0.00 0.00 55 1000.2
20260503024431 70 5 0.9 3.5 0.00 0.00 0.00 53 1000.2
20260503023932 71 17 1.7 4.3 0.00 0.00 0.00 51 1000.2
20260503022947 71 21 0.0 9.6 0.00 0.00 0.00 50 1000.2
20260503022441 71 44 1.7 9.6 0.00 0.00 0.00 51 1000.2
20260503021936 71 281 1.7 5.2 0.00 0.00 0.00 51 1000.2
20260503021427 71 316 2.6 4.3 0.00 0.00 0.00 51 1000.2
20260503020427 72 261 3.5 7.8 0.00 0.00 0.00 51 1000.2
20260503015923 72 344 2.6 7.8 0.00 0.00 0.00 51 1000.2
20260503014939 72 285 5.2 8.7 0.00 0.00 0.00 52 1000.2
20260503014434 72 49 0.0 8.7 0.00 0.00 0.00 52 1000.2
20260503013927 73 242 1.7 8.7 0.00 0.00 0.00 53 1000.2
20260503012941 73 338 5.2 11.3 0.00 0.00 0.00 54 1000.2
20260503011935 73 11 7.0 11.3 0.00 0.00 0.00 54 1000.2
20260503011433 73 285 4.3 9.6 0.00 0.00 0.00 56 1000.2
20260503010922 73 308 2.6 9.6 0.00 0.00 0.00 57 1000.2
20260503005949 73 270 4.3 8.7 0.00 0.00 0.00 57 1000.2
20260503005443 73 287 5.2 9.6 0.00 0.00 0.00 57 1000.2
20260503004938 72 309 5.2 8.7 0.00 0.00 0.00 58 1000.2
20260503004434 72 285 5.2 12.2 0.00 0.00 0.00 58 1000.2
20260503003436 73 277 5.2 13.0 0.00 0.00 0.00 58 1000.2
20260503002934 73 304 7.0 13.0 0.00 0.00 0.00 57 1000.2
20260503001930 73 287 7.0 10.4 0.00 0.00 0.00 57 1000.2
20260503000935 73 302 4.3 8.7 0.00 0.00 0.00 57 1000.2
20260502235940 73 289 3.5 10.4 0.00 0.00 0.00 57 1000.2
20260502234940 73 278 5.2 11.3 0.00 0.00 0.00 57 1000.2
20260502234424 73 282 4.3 10.4 0.00 0.00 0.00 56 1000.2
20260502233916 73 310 7.0 10.4 0.00 0.00 0.00 57 1000.2
20260502232925 73 294 5.2 10.4 0.00 0.00 0.00 58 1000.2
20260502231938 72 265 4.3 9.6 0.00 0.00 0.00 57 1000.2
20260502231431 73 286 6.1 10.4 0.00 0.00 0.00 57 1000.2
20260502230439 72 260 6.1 11.3 0.00 0.00 0.00 58 1000.2
20260502225936 73 252 7.8 11.3 0.00 0.00 0.00 57 1000.2
20260502225433 72 318 2.6 7.8 0.00 0.00 0.00 57 1000.2
20260502224925 73 225 2.6 13.0 0.00 0.00 0.00 56 1000.2